Effective Sunday, March 17, 2024, the National Weather Service National Data Buoy Center will discontinue its Dial-A-Buoy Interactive Voice Response system. For more information, see Service Change Notice 24-06 (PDF).

Station DUKN7 - 8651370 - Duck Pier, NC Image indicating link to RSS feed of recent meteorological observations for station DUKN7


Conditions at DUKN7 as of
(3:30 pm EST)
2030 GMT on 02/21/2024:
     

Click on the graph icon in the table below to see a time series plot of the last five days of that observation.

5-day plot - Wind Direction Wind Direction (WDIR): N ( 10 deg true )
5-day plot - Wind Speed Wind Speed (WSPD): 15.9 kts
5-day plot - Wind Gust Wind Gust (GST): 19.0 kts
5-day plot - Atmospheric Pressure Atmospheric Pressure (PRES):30.25 in
5-day plot - Air Temperature Air Temperature (ATMP): 43.3 °F
5-day plot - Wind Chill Wind Chill (CHILL): 35.2 °F
5-day plot - Wind Speed at 10 Meters Wind Speed at 10 meters (WSPD10M): 17.5 kts
5-day plot - Wind Speed at 20 Meters Wind Speed at 20 meters (WSPD20M): 17.5 kts
5-day plot -  Wind Speed, Wind Gust and Atmospheric Pressure Combined plot of Wind Speed, Gust, and Air Pressure
NOS Water Level Observation Network Water Level
Previous observations
TIME
(EST)
5-day plot - Wind Direction
WDIR
 
5-day plot - Wind Speed
WSPD
kts
5-day plot - Wind Gust
GST
kts
5-day plot - Wave Height
WVHT
ft
5-day plot - Dominant Wave Period
DPD
sec
5-day plot - Average Wave Period
APD
sec
5-day plot - Mean Wave Direction
MWD
 
5-day plot - Atmospheric Pressure
PRES
in
5-day plot - Pressure Tendency
PTDY
in
5-day plot - Air Temperature
ATMP
°F
5-day plot - Water Temperature
WTMP
°F
5-day plot - Dew Point
DEWP
°F
5-day plot - Salinity
SAL
psu
5-day plot - Visibility
VIS
nmi
5-day plot - Tide (above MLLW)
TIDE
ft
2024-02-21 03:24 pm N 15.9 22.0----30.25- 43.3-----
2024-02-21 03:18 pm N 17.1 19.0----30.25- 43.3-----
2024-02-21 03:12 pm N 17.1 20.0----30.25- 43.5-----
2024-02-21 03:06 pm N 17.1 22.0----30.25- 43.3-----
2024-02-21 03:00 pm N 19.0 22.0----30.25-0.05 43.3-----
2024-02-21 02:54 pm N 17.1 21.0----30.25- 43.3-----
2024-02-21 02:48 pm N 17.1 22.0----30.25- 43.3-----
2024-02-21 02:42 pm N 20.0 22.0----30.25- 43.3-----
2024-02-21 02:36 pm N 18.1 21.0----30.26- 43.3-----
2024-02-21 02:30 pm N 15.0 21.0----30.26- 43.7-----
2024-02-21 02:24 pm N 17.1 22.0----30.26- 43.5-----
2024-02-21 02:18 pm N 20.0 21.0----30.26- 43.3-----
2024-02-21 02:12 pm N 19.0 22.9----30.26- 43.5-----
2024-02-21 02:06 pm N 19.0 22.9----30.26- 43.3-----
2024-02-21 02:00 pm N 19.0 22.9----30.27-0.06 43.3-----
2024-02-21 01:54 pm N 21.0 22.0----30.27- 43.5-----
2024-02-21 01:48 pm N 19.0 25.1----30.27- 43.5-----
2024-02-21 01:42 pm N 20.0 24.1----30.27- 43.5-----
2024-02-21 01:36 pm N 21.0 22.9----30.27- 43.3-----
2024-02-21 01:30 pm N 20.0 25.1----30.28- 43.5-----
2024-02-21 01:24 pm N 22.9 25.1----30.27- 43.3-----
2024-02-21 01:18 pm N 21.0 22.9----30.28- 43.5-----
2024-02-21 01:12 pm N 18.1 22.0----30.28- 43.5-----
2024-02-21 01:06 pm N 21.0 24.1----30.28- 43.3-----
2024-02-21 01:00 pm N 19.0 22.0----30.28-0.05 43.5-----
2024-02-21 12:54 pm N 21.0 22.0----30.28- 43.5-----
2024-02-21 12:48 pm N 19.0 22.0----30.28- 43.5-----
2024-02-21 12:42 pm N 19.0 21.0----30.29- 43.5-----
2024-02-21 12:36 pm N 18.1 21.0----30.29- 43.5-----
2024-02-21 12:30 pm N 17.1 22.0----30.29- 43.3-----
2024-02-21 12:24 pm N 19.0 21.0----30.29- 43.5-----
2024-02-21 12:18 pm N 19.0 22.9----30.29- 43.5-----
2024-02-21 12:12 pm N 19.0 22.0----30.29- 43.5-----
2024-02-21 12:06 pm N 19.0 24.1----30.30- 43.5-----
2024-02-21 12:00 pm N 19.0 22.0----30.30-0.03 43.3-----
2024-02-21 11:54 am N 18.1 22.0----30.31- 43.5-----
2024-02-21 11:48 am N 17.1 21.0----30.31- 43.5-----
2024-02-21 11:42 am N 19.0 22.0----30.31- 43.5-----
2024-02-21 11:36 am N 18.1 20.0----30.31- 43.3-----
2024-02-21 11:30 am N 17.1 21.0----30.31- 43.3-----
2024-02-21 11:24 am N 18.1 20.0----30.31- 43.3-----
2024-02-21 11:18 am N 18.1 22.0----30.32- 43.5-----
2024-02-21 11:12 am N 20.0 22.9----30.32- 43.3-----
2024-02-21 11:06 am N 17.1 21.0----30.32- 43.3-----
2024-02-21 11:00 am N 17.1 22.0----30.33+0.00 43.3-----
2024-02-21 10:54 am N 19.0 22.0----30.33- 43.2-----
2024-02-21 10:48 am N 15.9 20.0----30.33- 43.3-----
2024-02-21 10:42 am N 20.0 22.0----30.33- 43.3-----
2024-02-21 10:36 am N 18.1 22.0----30.33- 43.3-----
2024-02-21 10:30 am N 15.9 20.0----30.33- 43.3-----
2024-02-21 10:24 am N 17.1 19.0----30.33- 43.3-----
2024-02-21 10:18 am N 15.9 19.0----30.33- 43.2-----
2024-02-21 10:12 am N 15.0 20.0----30.34- 43.3-----
2024-02-21 10:06 amNNE 19.0 22.0----30.34- 43.3-----
2024-02-21 10:00 am N 18.1 21.0----30.33+0.01------
2024-02-21 09:54 am N 15.9 20.0----30.34-------
2024-02-21 09:48 am N 15.0 19.0----30.34- 43.3-----
2024-02-21 09:42 am N 15.9 22.0----30.33- 43.0-----
2024-02-21 09:36 amNNE 18.1 22.0----30.33- 43.2-----
2024-02-21 09:30 am N 15.9 22.0----30.33- 43.0-----
2024-02-21 09:24 amNNE 19.0 22.9----30.33- 42.8-----
2024-02-21 09:18 am N 15.0 22.0----30.33- 43.0-----
2024-02-21 09:12 amNNE 15.9 22.0----30.33- 43.0-----
2024-02-21 09:06 amNNE 17.1 21.0----30.33- 42.8-----
2024-02-21 09:00 amNNE 17.1 22.0----30.33+0.01 42.8-----
2024-02-21 08:54 amNNE 20.0 22.0----30.33- 42.8-----
2024-02-21 08:48 amNNE 18.1 21.0----30.33- 43.0-----
2024-02-21 08:42 amNNE 19.0 24.1----30.33- 42.8-----
2024-02-21 08:36 amNNE 18.1 22.9----30.32- 42.8-----
2024-02-21 08:30 amNNE 20.0 22.0----30.32- 42.6-----
2024-02-21 08:24 amNNE 21.0 24.1----30.32- 42.6-----
2024-02-21 08:18 amNNE 20.0 22.9----30.32- 42.4-----
2024-02-21 08:12 amNNE 22.0 22.9----30.32- 42.4-----
2024-02-21 08:06 amNNE 19.0 22.9----30.32- 42.4-----
2024-02-21 08:00 amNNE 17.1 22.9----30.33+0.01 42.6-----
2024-02-21 07:54 amNNE 19.0 24.1----30.32- 42.6-----
2024-02-21 07:48 amNNE 20.0 25.1----30.32- 42.4-----
2024-02-21 07:42 amNNE 21.0 24.1----30.32- 42.1-----
2024-02-21 07:36 amNNE 20.0 22.9----30.32- 42.3-----
2024-02-21 07:30 amNNE 20.0 24.1----30.32- 42.3-----
2024-02-21 07:24 amNNE 19.0 24.1----30.32- 42.3-----
2024-02-21 07:18 amNNE 21.0 24.1----30.32- 42.1-----
2024-02-21 07:12 amNNE 19.0 22.0----30.32- 42.1-----
2024-02-21 07:06 amNNE 19.0 24.1----30.32- 42.1-----
2024-02-21 07:00 amNNE 22.0 24.1----30.32+0.00 41.9-----
2024-02-21 06:54 amNNE 19.0 22.9----30.32- 41.9-----
2024-02-21 06:48 amNNE 21.0 22.9----30.32- 41.9-----
2024-02-21 06:42 amNNE 19.0 24.1----30.32- 42.1-----
2024-02-21 06:36 amNNE 22.9 25.1----30.32- 41.7-----
2024-02-21 06:30 amNNE 19.0 24.1----30.32- 41.9-----
2024-02-21 06:24 amNNE 20.0 25.1----30.32- 41.9-----
2024-02-21 06:18 amNNE 21.0 24.1----30.32- 42.1-----
2024-02-21 06:12 amNNE 22.0 24.1----30.32- 42.1-----
2024-02-21 06:06 amNNE 19.0 24.1----30.32- 41.9-----
2024-02-21 06:00 am N 18.1 22.0----30.32+0.00 41.9-----
2024-02-21 05:54 amNNE 19.0 22.0----30.32- 41.9-----
2024-02-21 05:48 amNNE 20.0 22.9----30.32- 41.9-----
2024-02-21 05:42 amNNE 19.0 22.0----30.32- 41.9-----
2024-02-21 05:36 amNNE 19.0 21.0----30.32- 41.9-----
2024-02-21 05:30 amNNE 18.1 22.0----30.32- 41.7-----
2024-02-21 05:24 amNNE 19.0 22.0----30.32- 41.9-----
2024-02-21 05:18 amNNE 19.0 21.0----30.32- 41.9-----
2024-02-21 05:12 amNNE 17.1 21.0----30.32- 41.9-----
2024-02-21 05:06 amNNE 15.9 20.0----30.32- 42.1-----
2024-02-21 05:00 amNNE 18.1 21.0----30.32-0.01 42.1-----
2024-02-21 04:54 amNNE 19.0 21.0----30.32- 42.1-----
2024-02-21 04:48 amNNE 20.0 24.1----30.31- 42.1-----
2024-02-21 04:42 amNNE 20.0 22.9----30.31- 42.3-----
2024-02-21 04:36 amNNE 21.0 22.9----30.31- 42.1-----
2024-02-21 04:30 amNNE 21.0 24.1----30.31- 42.1-----
2024-02-21 04:24 amNNE 21.0 22.9----30.32- 41.9-----
2024-02-21 04:18 amNNE 20.0 22.0----30.32- 42.1-----
2024-02-21 04:12 amNNE 20.0 24.1----30.32- 42.1-----
2024-02-21 04:06 amNNE 21.0 22.9----30.32- 42.3-----
2024-02-21 04:00 amNNE 20.0 22.0----30.32+0.00 42.1-----
2024-02-21 03:54 amNNE 21.0 22.9----30.32- 42.1-----
2024-02-21 03:48 amNNE 21.0 24.1----30.32- 42.1-----
2024-02-21 03:42 amNNE 21.0 24.1----30.32- 42.1-----
2024-02-21 03:36 amNNE 21.0 22.9----30.32- 42.1-----
2024-02-21 03:30 amNNE 22.0 24.1----30.32- 42.1-----
2024-02-21 03:24 amNNE 20.0 24.1----30.32- 42.1-----
2024-02-21 03:18 amNNE 20.0 22.9----30.32- 42.3-----
2024-02-21 03:12 amNNE 21.0 24.1----30.32- 42.3-----
2024-02-21 03:06 amNNE 20.0 22.9----30.32- 42.3-----
2024-02-21 03:00 amNNE 21.0 22.9----30.32+0.00 42.4-----
2024-02-21 02:54 amNNE 20.0 24.1----30.32- 42.4-----
2024-02-21 02:48 amNNE 22.9 25.1----30.32- 42.4-----
2024-02-21 02:42 amNNE 22.0 25.1----30.32- 42.4-----
2024-02-21 02:36 amNNE 22.9 25.1----30.32- 42.4-----
2024-02-21 02:30 amNNE 24.1 25.1----30.32- 42.3-----
2024-02-21 02:24 amNNE 22.9 26.0----30.32- 42.4-----
2024-02-21 02:18 amNNE 24.1 26.0----30.32- 42.4-----
2024-02-21 02:12 amNNE 22.9 27.0----30.32- 42.6-----
2024-02-21 02:06 amNNE 24.1 26.0----30.32- 42.8-----
2024-02-21 02:00 amNNE 24.1 26.0----30.32+0.00------
2024-02-21 01:54 amNNE 24.1 27.0----30.32-------
2024-02-21 01:48 amNNE 22.9 26.0----30.32- 42.8-----
2024-02-21 01:42 amNNE 22.9 26.0----30.32- 42.8-----
2024-02-21 01:36 amNNE 22.9 26.0----30.32- 43.0-----
2024-02-21 01:30 amNNE 22.0 26.0----30.33- 43.0-----
2024-02-21 01:24 amNNE 22.0 25.1----30.33- 43.2-----
2024-02-21 01:18 amNNE 22.0 26.0----30.33- 43.0-----
2024-02-21 01:12 amNNE 22.9 26.0----30.33- 43.2-----
2024-02-21 01:06 amNNE 22.0 27.0----30.33- 43.2-----
2024-02-21 01:00 amNNE 22.9 27.0----30.32-0.02 43.2-----
2024-02-21 12:54 amNNE 24.1 27.0----30.32- 43.2-----
2024-02-21 12:48 amNNE 24.1 26.0----30.32- 43.3-----
2024-02-21 12:42 amNNE 22.9 27.0----30.32- 43.3-----
2024-02-21 12:36 amNNE 25.1 28.0----30.32- 43.3-----
2024-02-21 12:30 amNNE 25.1 27.0----30.32- 43.5-----
2024-02-21 12:24 amNNE 25.1 27.0----30.32- 43.5-----
2024-02-21 12:18 amNNE 25.1 27.0----30.32- 43.7-----
2024-02-21 12:12 amNNE 24.1 27.0----30.32- 43.7-----
2024-02-21 12:06 amNNE 21.0 26.0----30.32- 43.7-----
2024-02-21 12:00 amNNE 25.1 28.0----30.32-0.01 43.7-----
2024-02-20 11:54 pmNNE 22.0 27.0----30.32- 43.7-----
2024-02-20 11:48 pmNNE 25.1 27.0----30.32- 43.9-----
2024-02-20 11:42 pm NE 24.1 28.0----30.32- 43.9-----
2024-02-20 11:36 pmNNE 24.1 28.9----30.32- 43.9-----
2024-02-20 11:30 pmNNE 25.1 28.0----30.32- 43.9-----
2024-02-20 11:24 pmNNE 22.9 26.0----30.32- 43.9-----
2024-02-20 11:18 pmNNE 24.1 27.0----30.32- 44.1-----
2024-02-20 11:12 pmNNE 24.1 26.0----30.32- 44.1-----
2024-02-20 11:06 pmNNE 24.1 27.0----30.33- 43.9-----
2024-02-20 11:00 pmNNE 22.9 26.0----30.33+0.00 44.1-----
2024-02-20 10:54 pm NE 24.1 27.0----30.33- 43.9-----
2024-02-20 10:48 pm NE 22.9 28.0----30.33- 44.1-----
2024-02-20 10:42 pm NE 22.0 27.0----30.33- 44.1-----
2024-02-20 10:36 pmNNE 22.9 26.0----30.33- 44.1-----
2024-02-20 10:30 pm NE 22.0 27.0----30.33- 44.1-----
2024-02-20 10:24 pmNNE 25.1 27.0----30.34- 44.1-----
2024-02-20 10:18 pm NE 24.1 27.0----30.34- 44.1-----
2024-02-20 10:12 pmNNE 22.9 26.0----30.34- 44.2-----
2024-02-20 10:06 pmNNE 22.9 27.0----30.34- 44.2-----
2024-02-20 10:00 pm NE 21.0 25.1----30.34+0.01 44.1-----
2024-02-20 09:54 pm NE 22.9 25.1----30.34- 44.1-----
2024-02-20 09:48 pm NE 20.0 25.1----30.34- 44.1-----
2024-02-20 09:42 pm NE 22.9 26.0----30.34- 44.1-----
2024-02-20 09:36 pm NE 24.1 27.0----30.34- 44.1-----
2024-02-20 09:30 pm NE 22.9 28.0----30.34- 44.1-----
2024-02-20 09:24 pmNNE 24.1 26.0----30.34- 44.1-----
2024-02-20 09:18 pm NE 24.1 27.0----30.34- 44.1-----
2024-02-20 09:12 pm NE 22.9 26.0----30.34- 44.1-----
2024-02-20 09:06 pm NE 24.1 27.0----30.34- 43.9-----
2024-02-20 09:00 pm NE 22.9 26.0----30.34+0.01 43.9-----
2024-02-20 08:54 pm NE 22.9 26.0----30.34- 44.1-----
2024-02-20 08:48 pm NE 22.9 25.1----30.34- 43.9-----
2024-02-20 08:42 pm NE 22.9 26.0----30.34- 43.9-----
2024-02-20 08:36 pmNNE 22.0 25.1----30.34- 43.9-----
2024-02-20 08:30 pmNNE 22.9 27.0----30.34- 43.9-----
2024-02-20 08:24 pmNNE 22.0 26.0----30.34- 43.9-----
2024-02-20 08:18 pmNNE 22.9 25.1----30.33- 43.9-----
2024-02-20 08:12 pmNNE 22.9 26.0----30.33- 43.9-----
2024-02-20 08:06 pmNNE 22.9 26.0----30.33- 43.9-----
2024-02-20 08:00 pm NE 22.9 25.1----30.33+0.00 43.9-----
2024-02-20 07:54 pmNNE 21.0 24.1----30.33- 43.7-----
2024-02-20 07:48 pmNNE 22.0 25.1----30.33- 43.9-----
2024-02-20 07:42 pmNNE 22.0 26.0----30.33- 43.9-----
2024-02-20 07:36 pmNNE 22.9 25.1----30.33- 43.9-----
2024-02-20 07:30 pmNNE 21.0 25.1----30.33- 43.9-----
2024-02-20 07:24 pmNNE 22.0 28.0----30.33- 43.9-----
2024-02-20 07:18 pmNNE 22.9 27.0----30.33- 43.9-----
2024-02-20 07:12 pmNNE 22.9 26.0----30.33- 43.9-----
2024-02-20 07:06 pmNNE 22.0 25.1----30.33- 43.9-----
2024-02-20 07:00 pmNNE 22.9 25.1----30.33+0.02 43.9-----
2024-02-20 06:54 pmNNE 21.0 25.1----30.33- 43.9-----
2024-02-20 06:48 pmNNE 22.0 26.0----30.33- 43.9-----
2024-02-20 06:42 pmNNE 22.9 26.0----30.33- 43.9-----
2024-02-20 06:36 pmNNE 21.0 25.1----30.33- 43.9-----
2024-02-20 06:30 pmNNE 24.1 26.0----30.33- 43.9-----
2024-02-20 06:24 pmNNE 22.9 25.1----30.33- 43.9-----
2024-02-20 06:00 pmNNE 22.0 27.0----30.33+0.01 43.9-----
2024-02-20 05:54 pmNNE 22.9 27.0----30.33- 43.7-----
2024-02-20 05:48 pmNNE 22.0 25.1----30.32- 43.9-----
2024-02-20 05:42 pmNNE 25.1 27.0----30.32- 43.9-----
2024-02-20 05:36 pmNNE 24.1 26.0----30.32- 43.7-----
2024-02-20 05:30 pmNNE 22.9 26.0----30.33- 43.9-----
2024-02-20 05:24 pmNNE 22.0 27.0----30.33- 43.7-----
2024-02-20 05:18 pmNNE 21.0 24.1----30.33- 43.9-----
2024-02-20 05:12 pmNNE 22.0 25.1----30.33- 43.9-----
2024-02-20 05:06 pmNNE 24.1 26.0----30.33- 43.9-----
2024-02-20 05:00 pmNNE 21.0 25.1----30.33+0.00 43.9-----
2024-02-20 04:54 pmNNE 24.1 27.0----30.33- 43.9-----
2024-02-20 04:48 pmNNE 22.9 27.0----30.32- 43.9-----
2024-02-20 04:42 pmNNE 25.1 28.0----30.32- 43.9-----
2024-02-20 04:36 pmNNE 22.9 27.0----30.32- 43.9-----
2024-02-20 04:30 pmNNE 22.9 28.0----30.32- 44.1-----
2024-02-20 04:24 pmNNE 22.9 27.0----30.31- 44.1-----
2024-02-20 04:18 pmNNE 22.0 28.0----30.32- 44.1-----
2024-02-20 04:12 pmNNE 22.9 27.0----30.31- 44.1-----
2024-02-20 04:06 pmNNE 24.1 27.0----30.31- 44.1-----
2024-02-20 04:00 pmNNE 24.1 27.0----30.31-0.03 44.1-----
2024-02-20 03:54 pmNNE 22.9 28.0----30.32- 44.1-----